sat.trackr.live / text

‹ back to catalog

STARLINK-6076

NORAD 56100 · 2023-046H

PAYLOAD ACTIVE UNKNOWN

§ Identity

Operator
Country
US
Launch date
2023-03-29
Launch site
AFETR
Launch vehicle
Mass (kg)
RCS (m²)

Purposes: comms

External: N2YO · Heavens-Above · Gunter

§ Orbital elements

Epoch: 2026-05-25T02:43:09.525216Z

Period
94.27 min
Inclination
43.0033°
Eccentricity
0.0001499
Mean motion
15.27576187 rev/d
Perigee alt
482.0 km
Apogee alt
484.1 km
Semi-major
6,861.2 km
B*
3.6365e-5
RAAN
89.6225°
Arg perigee
282.4619°
Mean anomaly
77.6065°
Rev number
17,372

§ Raw data

STARLINK-60761 56100U 23046H   26145.11330469  .00000738  00000+0  36365-4 0  99962 56100  43.0033  89.6225 0001499 282.4619  77.6065 15.27576187173724

JSON: /api/v1/satellites/56100 · /tle

For live sub-satellite position, see the globe view (requires WebGL).

§ Visibility from observer

Set your observer location to see the next 7 days of passes ≥ 10°. The values pass through the URL so the page stays shareable.

No JS? Fill the form by hand. The geolocation button needs JavaScript.